Location: Maccacari
(45.1333°N, 11.1333°E)
Time: 19:56:09
(UTC+00:00)

Tiros 1 despin weight - Pass Details

Date: 24 January 2021
Orbit: 593 x 642 km, 48.2° (Epoch: 26 February)

Event Time Altitude Azimuth Distance (km) Brightness Sun altitude
Rises 20:19:28 0° 282° (WNW) 2,838 ? -43.2°
Enters shadow 20:20:48 - 275° (W) 2,412 ? -43.5°
Reaches altitude 10° 20:22:37 10° 259° (W) 1,926 - -43.8°
Maximum altitude 20:25:05 15° 225° (SW) 1,625 - -44.2°
Drops below altitude 10° 20:27:33 10° 190° (S) 1,914 - -44.6°
Sets 20:30:41 0° 167° (SSE) 2,811 - -45.1°
